Погода в Пересыпи

Россия / Краснодарский край     45°20′51″N   37°07′38″E
темп.,
°C
ветер,
м/с
пор.,
м/с
влажн.,
%
обл.,
%
осадки,
мм/ч
давл.,
гПа
погр.,
м
14 апреля, ср
ср1400:00+8з118244 0.0 102110
03:00+8ссв1185100 0.0 102011
06:00+8ююв1185100 0.0 101913
09:00+10ю3478100 0.0 1019375
12:00+13ююз666611 0.0 1018842
15:00+13ююз7864100 0.0 1018696
18:00+11ююз6873100 0.0 1017557
21:00+9ююв3784100 0.0 1018217
15 апреля, чт
чт1500:00+10ююв27805 0.0 1016277
03:00+8ююв33851 0.0 101652
06:00+8ю4782100 0.0 1016131
09:00+12ю6970100 0.0 1016279
12:00+12ююз6772100 0.3 1017378
15:00+13ююз6873100 0.8 1017481
18:00+11юз68713 0.0 1017331
21:00+8юз48876 0.0 1018176
16 апреля, пт
пт1600:00+8юз4891100 0.0 1017227
03:00+7зюз3592100 0.0 1017147
06:00+7ююз119276 0.0 101733
09:00+11ююз4573100 0.0 1019549
12:00+10ююз5780100 0.1 1019495
15:00+12юз676689 0.1 1019683
18:00+10юз6974100 0.0 1020590
21:00+9юз59875 0.0 1020283
17 апреля, сб
сб1700:00+8юз58905 0.0 1021224
03:00+7сз34910 0.0 102292
06:00+5сз23882 0.0 102267
09:00+9зсз11687 0.0 1023640
12:00+11ссз2260100 0.0 1023979
15:00+11с2162100 0.0 1023724
18:00+10ссв337017 0.0 1022267
21:00+8св3577100 0.0 1022104
18 апреля, вс
вс1800:00+8всв3577100 0.0 1021108
03:00+7всв4877100 0.0 1020226
06:00+8всв51078100 0.0 1019334
09:00+8всв61089100 0.3 1018340
12:00+12всв667956 0.1 1018504
15:00+11ссв6788100 0.3 1018263
18:00+10св5794100 0.8 1018247
21:00+9всв479661 1.4 1019250